Date String (YYYY-MM-DD hh:mm:ss) UTC,Instrument flags,Ambient pressure (hPa),Sample flow (lpm),Bypass flow (lpm),Sample temperature (°C),Ambient temperature (°C),ASC tube jacket temperature (°C),LED temperature (°C),Box temperature (°C),Sample RH (%),Span deviation,Mass concentration (μg/m³),Mass concentration (μg/m³),Mass concentration (μg/m³)
DateTimeUTC,F1_M11,P_M11,Q1_M11,Q2_M11,T1_M11,T2_M11,T3_M11,T4_M11,T5_M11,U1_M11,ZSPAN_M11,X0_M11,X2_M11,X1_M11
2022-09-05 07:00:00,,0826.7,5.01,0.00,30.0,29.0,00.0,38.7,31.9,14.4,0000.0,0014.16,0007.18,0006.47
2022-09-05 07:01:00,,0826.7,5.00,0.00,30.0,29.0,00.0,38.7,31.9,14.3,0000.0,0013.83,0007.24,0006.49
2022-09-05 07:02:00,,0826.7,4.99,0.00,30.1,29.1,00.0,38.7,32.0,14.3,0000.0,0014.22,0007.23,0006.49
2022-09-05 07:03:00,,0826.7,5.01,0.00,30.1,29.1,00.0,38.8,32.0,14.3,0000.0,0013.78,0007.25,0006.51
2022-09-05 07:04:00,,0826.7,4.99,0.00,30.1,29.1,00.0,38.8,32.0,14.3,0000.0,0014.00,0007.26,0006.52
2022-09-05 07:05:00,,0826.6,5.01,0.00,30.1,28.3,00.0,38.8,32.0,14.3,0000.0,0014.61,0007.26,0006.52
2022-09-05 07:06:00,,0826.7,4.99,0.00,30.1,27.2,00.0,38.8,31.9,14.3,0000.0,0014.47,0007.26,0006.52
2022-09-05 07:07:00,,0826.7,5.00,0.00,30.1,27.1,00.0,38.7,31.8,14.5,0000.0,0014.20,0007.21,0006.52
2022-09-05 07:08:00,,0826.7,5.01,0.00,30.0,27.3,00.0,38.7,31.6,14.6,0000.0,0013.46,0007.20,0006.53
2022-09-05 07:09:00,,0826.7,5.00,0.00,29.9,27.6,00.0,38.7,31.6,14.6,0000.0,0013.71,0007.28,0006.55
2022-09-05 07:10:00,,0826.6,5.01,0.00,29.9,27.8,00.0,38.7,31.6,14.6,0000.0,0015.07,0007.33,0006.59
2022-09-05 07:11:00,,0826.6,5.00,0.00,29.9,28.1,00.0,38.7,31.7,14.5,0000.0,0015.66,0007.37,0006.63
2022-09-05 07:12:00,,0826.7,5.00,0.00,29.9,28.3,00.0,38.7,31.7,14.6,0000.0,0016.11,0007.38,0006.66
2022-09-05 07:13:00,,0826.7,5.01,0.00,29.9,28.4,00.0,38.7,31.7,14.5,0000.0,0016.20,0007.41,0006.69
2022-09-05 07:14:00,,0826.6,5.00,0.00,29.9,28.5,00.0,38.7,31.8,14.5,0000.0,0016.31,0007.50,0006.72
2022-09-05 07:15:00,,0826.7,5.00,0.00,29.9,28.6,00.0,38.7,31.7,14.5,0000.0,0015.87,0007.52,0006.75
2022-09-05 07:16:00,,0826.7,4.99,0.00,30.0,28.7,00.0,38.7,31.8,14.5,0000.0,0015.12,0007.54,0006.79
2022-09-05 07:17:00,,0826.7,5.00,0.00,30.0,28.8,00.0,38.7,31.8,14.6,0000.0,0015.09,0007.58,0006.82
2022-09-05 07:18:00,,0826.7,5.01,0.00,30.0,28.9,00.0,38.7,31.9,14.6,0000.0,0015.29,0007.67,0006.87
2022-09-05 07:19:00,,0826.7,5.01,0.00,30.0,28.9,00.0,38.7,31.9,14.7,0000.0,0015.36,0007.73,0006.91
2022-09-05 07:20:00,,0826.7,4.98,0.00,30.1,29.0,00.0,38.8,32.0,14.6,0000.0,0015.38,0007.69,0006.94
2022-09-05 07:21:00,,0826.7,5.01,0.00,30.1,29.0,00.0,38.8,32.0,14.6,0000.0,0013.94,0007.67,0006.94
2022-09-05 07:22:00,,0826.6,5.00,0.00,30.1,29.1,00.0,38.8,32.0,14.5,0000.0,0013.62,0007.65,0006.95
2022-09-05 07:23:00,,0826.7,4.99,0.00,30.1,29.1,00.0,38.8,32.0,14.5,0000.0,0013.04,0007.64,0006.94
2022-09-05 07:24:00,,0826.7,5.01,0.00,30.2,29.2,00.0,38.9,32.0,14.5,0000.0,0013.20,0007.63,0006.95
2022-09-05 07:25:00,,0826.6,4.98,0.00,30.2,29.2,00.0,38.9,32.1,14.4,0000.0,0012.92,0007.60,0006.95
2022-09-05 07:26:00,,0826.6,5.00,0.00,30.2,28.8,00.0,38.9,32.1,14.2,0000.0,0013.51,0007.64,0006.95
2022-09-05 07:27:00,,0826.6,5.00,0.00,30.2,27.5,00.0,38.9,32.0,14.2,0000.0,0013.70,0007.60,0006.93
2022-09-05 07:28:00,,0826.6,5.00,0.00,30.1,27.1,00.0,38.8,31.9,14.3,0000.0,0013.85,0007.61,0006.93
2022-09-05 07:29:00,,0826.6,4.99,0.00,30.1,27.2,00.0,38.8,31.7,14.4,0000.0,0014.73,0007.60,0006.91
2022-09-05 07:30:00,,0826.5,5.01,0.00,30.0,27.5,00.0,38.8,31.7,14.6,0000.0,0014.66,0007.56,0006.89
2022-09-05 07:31:00,,0826.5,5.00,0.00,30.0,27.8,00.0,38.8,31.7,14.5,0000.0,0014.16,0007.56,0006.87
2022-09-05 07:32:00,,0826.5,4.99,0.00,30.0,28.0,00.0,38.8,31.7,14.6,0000.0,0014.30,0007.56,0006.86
2022-09-05 07:33:00,,0826.5,5.00,0.00,30.0,28.2,00.0,38.7,31.7,14.5,0000.0,0013.88,0007.53,0006.84
2022-09-05 07:34:00,,0826.5,5.00,0.00,30.0,28.4,00.0,38.7,31.8,14.4,0000.0,0013.94,0007.55,0006.84
2022-09-05 07:35:00,,0826.5,5.00,0.00,30.0,28.5,00.0,38.7,31.8,14.3,0000.0,0013.65,0007.55,0006.82
2022-09-05 07:36:00,,0826.5,5.00,0.00,30.0,28.6,00.0,38.7,31.8,14.3,0000.0,0013.65,0007.52,0006.80
2022-09-05 07:37:00,,0826.5,5.01,0.00,30.0,28.7,00.0,38.8,31.8,14.3,0000.0,0013.79,0007.49,0006.79
2022-09-05 07:38:00,,0826.5,4.99,0.00,30.0,28.8,00.0,38.8,31.9,14.3,0000.0,0014.06,0007.52,0006.78
2022-09-05 07:39:00,,0826.5,4.99,0.00,30.0,28.9,00.0,38.8,31.9,14.2,0000.0,0014.27,0007.51,0006.76
2022-09-05 07:40:00,,0826.5,5.00,0.00,30.1,28.9,00.0,38.8,31.9,14.3,0000.0,0014.12,0007.45,0006.72
2022-09-05 07:41:00,,0826.5,5.01,0.00,30.1,29.0,00.0,38.8,32.0,14.2,0000.0,0014.88,0007.41,0006.66
2022-09-05 07:42:00,,0826.5,5.01,0.00,30.1,29.0,00.0,38.8,32.0,14.2,0000.0,0014.89,0007.34,0006.61
2022-09-05 07:43:00,,0826.6,5.00,0.00,30.1,29.1,00.0,38.9,32.0,14.3,0000.0,0015.98,0007.30,0006.56
2022-09-05 07:44:00,,0826.5,5.00,0.00,30.2,29.1,00.0,38.9,32.0,14.1,0000.0,0016.62,0007.24,0006.51
2022-09-05 07:45:00,,0826.5,5.01,0.00,30.2,29.1,00.0,38.9,32.1,14.0,0000.0,0017.52,0007.17,0006.45
2022-09-05 07:46:00,,0826.5,5.01,0.00,30.2,29.2,00.0,38.9,32.1,13.9,0000.0,0017.73,0007.12,0006.40
2022-09-05 07:47:00,,0826.5,4.99,0.00,30.2,28.5,00.0,38.9,32.1,13.8,0000.0,0017.28,0007.06,0006.36
2022-09-05 07:48:00,,0826.5,5.00,0.00,30.2,27.1,00.0,38.9,31.9,13.8,0000.0,0016.31,0006.95,0006.29
2022-09-05 07:49:00,,0826.5,5.01,0.00,30.1,27.0,00.0,38.9,31.9,13.8,0000.0,0015.55,0006.87,0006.23
2022-09-05 07:50:00,,0826.5,5.00,0.00,30.1,27.2,00.0,38.8,31.7,13.9,0000.0,0015.40,0006.83,0006.18
2022-09-05 07:51:00,,0826.4,5.00,0.00,30.0,27.5,00.0,38.8,31.7,13.9,0000.0,0014.56,0006.79,0006.14
2022-09-05 07:52:00,,0826.5,5.00,0.00,30.0,27.8,00.0,38.8,31.7,13.9,0000.0,0013.80,0006.78,0006.11
2022-09-05 07:53:00,,0826.5,5.00,0.00,30.0,28.1,00.0,38.8,31.7,13.9,0000.0,0013.78,0006.78,0006.08
2022-09-05 07:54:00,,0826.4,5.00,0.00,30.0,28.3,00.0,38.8,31.8,13.8,0000.0,0012.66,0006.76,0006.06
2022-09-05 07:55:00,,0826.5,5.01,0.00,30.0,28.4,00.0,38.8,31.8,13.7,0000.0,0011.99,0006.76,0006.03
2022-09-05 07:56:00,,0826.5,5.00,0.00,30.0,28.5,00.0,38.8,31.8,13.6,0000.0,0010.99,0006.72,0006.00
2022-09-05 07:57:00,,0826.5,5.01,0.00,30.0,28.6,00.0,38.8,31.8,13.5,0000.0,0010.42,0006.66,0005.96
2022-09-05 07:58:00,,0826.4,4.98,0.00,30.0,28.7,00.0,38.8,31.9,13.5,0000.0,0010.48,0006.62,0005.93
2022-09-05 07:59:00,,0826.5,5.00,0.00,30.0,28.8,00.0,38.8,31.9,13.5,0000.0,0010.66,0006.60,0005.90
